Location: Ariel
(45.9570°N, 122.5700°W)
Time: 12:08:44
(UTC-07:00)

Transit 4A - All Passes

Search period start: 19 July 2019 00:00
Search period end: 29 July 2019 00:00
Orbit: 862 x 982 km, 66.8° (Epoch: 18 July)

Date Brightness Start Highest point End Pass type
(mag) Time Alt. Az. Time Alt. Az. Time Alt. Az.
19 Jul - 02:28:35 10° S 02:34:30 42° ESE 02:40:29 10° NE visible
19 Jul - 04:14:48 10° WSW 04:20:53 44° NW 04:27:03 10° NNE visible
19 Jul - 06:05:20 10° WNW 06:09:03 16° NNW 06:12:45 10° NNE daylight
19 Jul - 07:56:50 10° N 07:58:29 11° N 08:00:07 10° NNE daylight
19 Jul - 09:42:55 10° NNW 09:47:37 21° NNE 09:52:13 10° E daylight
19 Jul - 11:28:48 10° NNW 11:35:10 72° NE 11:41:19 10° SE daylight
19 Jul - 13:16:12 10° WNW 13:20:55 23° WSW 13:25:30 10° SSW daylight
20 Jul - 02:37:28 10° SSW 02:43:43 60° ESE 02:50:02 10° NE visible
20 Jul - 04:24:44 10° WSW 04:30:29 34° NW 04:36:17 10° NNE visible
20 Jul - 06:16:01 10° NW 06:18:59 13° NNW 06:21:59 10° N daylight
20 Jul - 08:06:20 10° N 08:08:32 12° N 08:10:42 10° NNE daylight
20 Jul - 09:52:08 10° NNW 09:57:23 26° NE 10:02:30 10° E daylight
20 Jul - 11:38:11 10° NW 11:44:32 83° WSW 11:50:41 10° SSE daylight
20 Jul - 13:26:34 10° WNW 13:29:55 15° WSW 13:33:12 10° SW daylight
21 Jul - 01:03:58 10° SE 01:07:35 16° ESE 01:11:13 10° ENE visible
21 Jul - 02:46:38 10° SSW 02:53:00 84° ESE 02:59:29 10° NE visible
21 Jul - 04:34:51 10° W 04:40:10 27° NW 04:45:30 10° NNE visible
21 Jul - 06:26:44 10° NNW 06:29:00 12° NNW 06:31:16 10° N daylight
21 Jul - 08:15:39 10° N 08:18:31 13° NNE 08:21:23 10° NE daylight
21 Jul - 10:01:22 10° NNW 10:07:04 33° NE 10:12:37 10° ESE daylight
21 Jul - 11:47:37 10° NW 11:53:50 59° WSW 11:59:49 10° SSE daylight
22 Jul - 01:11:44 10° SSE 01:16:35 23° ESE 01:21:30 10° NE visible
22 Jul - 02:56:01 10° SW 03:02:23 72° NW 03:08:51 10° NNE visible
22 Jul - 04:45:09 10° W 04:49:56 21° NNW 04:54:43 10° NNE visible
22 Jul - 06:37:23 10° NNW 06:39:03 11° N 06:40:43 10° N daylight
22 Jul - 08:24:53 10° NNW 08:28:29 15° NNE 08:32:03 10° ENE daylight
22 Jul - 10:10:37 10° NNW 10:16:40 43° NE 10:22:31 10° ESE daylight
22 Jul - 11:57:12 10° NW 12:03:02 41° WSW 12:08:42 10° S daylight
23 Jul - 01:20:05 10° S 01:25:41 34° ESE 01:31:21 10° NE visible
23 Jul - 03:05:37 10° SW 03:11:51 53° NW 03:18:09 10° NNE visible
23 Jul - 04:55:37 10° WNW 04:59:46 17° NNW 05:03:55 10° NNE visible
23 Jul - 06:47:39 10° NNW 06:49:06 11° N 06:50:33 10° NNE daylight
23 Jul - 08:34:05 10° NNW 08:38:23 18° NNE 08:42:36 10° ENE daylight
23 Jul - 10:19:54 10° NNW 10:26:10 59° NE 10:32:14 10° SE daylight
23 Jul - 12:06:55 10° NW 12:12:09 29° WSW 12:17:16 10° SSW daylight
24 Jul - 01:28:48 10° S 01:34:51 48° ESE 01:41:00 10° NE visible
24 Jul - 03:15:25 10° WSW 03:21:24 40° NW 03:27:25 10° NNE visible
24 Jul - 05:06:14 10° NW 05:09:41 15° NNW 05:13:07 10° NNE visible
24 Jul - 06:57:22 10° N 06:59:09 11° N 07:00:55 10° NNE daylight
24 Jul - 08:43:18 10° NNW 08:48:11 22° NNE 08:52:59 10° E daylight
24 Jul - 10:29:15 10° NNW 10:35:36 81° ENE 10:41:44 10° SE daylight
24 Jul - 12:16:56 10° WNW 12:21:13 19° WSW 12:25:23 10° SSW daylight
24 Jul - 23:56:43 10° ESE 23:58:54 12° E 00:01:06 10° E visible
25 Jul - 01:37:47 10° SSW 01:44:06 68° ESE 01:50:30 10° NE visible
25 Jul - 03:25:24 10° WSW 03:31:02 31° NW 03:36:40 10° NNE visible
25 Jul - 05:16:56 10° NW 05:19:39 13° NNW 05:22:21 10° N daylight
25 Jul - 07:06:47 10° N 07:09:11 12° NNE 07:11:35 10° NE daylight
25 Jul - 08:52:31 10° NNW 08:57:55 28° NE 09:03:11 10° E daylight
25 Jul - 10:38:38 10° NW 10:44:57 74° WSW 10:51:01 10° SSE daylight
25 Jul - 12:27:39 10° WNW 12:30:10 13° W 12:32:39 10° SW daylight
26 Jul - 00:03:43 10° SE 00:07:53 18° ESE 00:12:03 10° ENE visible
26 Jul - 01:47:02 10° SSW 01:53:26 87° WNW 01:59:55 10° NNE visible
26 Jul - 03:35:36 10° W 03:40:44 24° NW 03:45:53 10° NNE visible
26 Jul - 05:27:39 10° NNW 05:29:40 11° N 05:31:40 10° N daylight
26 Jul - 07:16:03 10° N 07:19:11 14° NNE 07:22:16 10° NE daylight
26 Jul - 09:01:45 10° NNW 09:07:35 36° NE 09:13:14 10° ESE daylight
26 Jul - 10:48:07 10° NW 10:54:12 52° WSW 11:00:04 10° S daylight
27 Jul - 00:11:44 10° SSE 00:16:54 27° ESE 00:22:08 10° NE visible
27 Jul - 01:56:30 10° SW 02:02:50 65° NW 02:09:16 10° NNE visible
27 Jul - 03:45:58 10° WNW 03:50:31 20° NNW 03:55:04 10° NNE visible
27 Jul - 05:38:13 10° NNW 05:39:43 11° N 05:41:13 10° N daylight
27 Jul - 07:25:16 10° NNW 07:29:06 16° NNE 07:32:53 10° ENE daylight
27 Jul - 09:11:01 10° NNW 09:17:09 48° NE 09:23:04 10° ESE daylight
27 Jul - 10:57:44 10° NW 11:03:22 36° WSW 11:08:51 10° S daylight
28 Jul - 00:20:14 10° S 00:26:02 38° ESE 00:31:54 10° NE visible
28 Jul - 02:06:10 10° WSW 02:12:20 48° NW 02:18:33 10° NNE visible
28 Jul - 03:56:29 10° WNW 04:00:23 16° NNW 04:04:16 10° NNE visible
28 Jul - 05:48:18 10° N 05:49:46 11° N 05:51:15 10° NNE daylight
28 Jul - 07:34:28 10° NNW 07:38:58 20° NNE 07:43:23 10° ENE daylight
28 Jul - 09:20:19 10° NNW 09:26:38 66° NE 09:32:42 10° SE daylight
28 Jul - 11:07:33 10° NW 11:12:28 25° WSW 11:17:16 10° SSW daylight
